Tracking 28799 objects as of 18-Apr-2024
HD Live streaming from Space Station
objects crossing your sky now

DMSP 5D-2 F11 DEB

Track DMSP 5D-2 F11 DEB now!
10-day predictions


NORAD ID: 28349
Int'l Code: 1991-082BN
Perigee: 743.3 km
Apogee: 842.5 km
Inclination: 98.9 °
Period: 100.6 minutes
Semi major axis: 7163 km
RCS: 0.01 m2 (small)
Launch date: November 28, 1991
Source: United States (US)
Launch site: AIR FORCE WESTERN TEST RANGE (AFWTR)

Note: This is SATELLITE DEBRIS
Your satellite tracking list
Your tracking list is empty




NASA's NSSDC Master Catalog

Two Line Element Set (TLE):
1 28349U 91082BN  24108.06953049  .00017510  00000-0  63812-2 0  9993
2 28349  98.8991 152.8151 0069237 186.8226 206.5409 14.31802122 26272
Source of the keplerian elements: AFSPC